Find Starlink 32202

NORAD ID: 60595 Int'l Des: 2024-150 Owner: SPXS Country: US Constellation: starlink operational
LEOCIRCULAR

当前视图

正在加载3D地球...

About Starlink 32202

Starlink 32202 (NORAD 60595) is a starlink constellation satellite (v2 mini) launched Aug 20, 2024 by SPXS of US. It operates in LEO, CIRCULAR orbit with a mass of 730.00 kg.

即将过境

Passes for default location (London). Set your location on the main map for personalized predictions.

高度历史

Loading altitude history...

两行轨道根数

1 60595U 24150N 26265.27577932 -.00001821 00000-0 -46923-4 0 9992
2 60595 53.1596 112.9079 0001277 85.8235 274.2912 15.31694176118159
Epoch: Sep 22, 2026 • Age: 13 hours

当前状态

高度 478.0 km
远地点 / 近地点 N/A
速度 7.63 km/s
星下点 -23.49°S, 6.63°E
发射日期 Aug 20, 2024
运行时间 2 years
类型 internet

技术详情

分类 Payload
质量 730.00 kg
干质量 700.00 kg
长度 0.30 m
跨度 29.00 m
形状 ? Box + pan
制造商 SPXS
平台类型 Starlink V2M
阶段状态 In Orbit
所有者/国家 SPXS/US

Most Searched